Wind_Speed
7 5 5 4 3 1 6 8 10 11 10 8 5 6 7 9 12 9 6 6 8 9 11 13 13 14 16 18 19 20 21 23 25 26 27 27 27 26 26 26 26 26 26
8 6 6 5 5 4 8 6 8 9 8 4 6 7 7 9 8 5 4 6 9 10 13 13 13 15 17 18 19 20 22 24 25 26 27 27 26 26 27 27 27 27 27
11 9 8 7 7 11 10 5 6 7 5 3 9 6 6 9 3 3 5 7 8 10 12 13 14 16 16 18 20 21 22 24 26 27 28 28 29 28 28 28 28 28 27
12 11 10 9 10 12 9 5 6 5 3 8 4 3 5 4 2 3 5 5 7 10 11 13 13 15 18 20 21 22 24 26 27 28 29 28 28 28 28 29 27 27 28
14 13 11 10 11 13 9 6 5 5 10 4 3 3 4 2 2 3 4 5 7 9 11 12 14 16 18 19 21 23 25 26 27 28 29 29 28 29 29 28 29 29 29
14 11 10 9 12 12 9 7 7 12 8 0 2 3 3 2 2 4 6 7 8 9 9 11 13 16 17 18 20 22 24 26 27 28 28 29 30 29 29 29 29 29 29
14 10 9 10 10 9 6 8 14 10 5 2 3 2 2 1 2 3 3 5 8 9 10 11 13 14 17 18 20 21 23 26 27 28 28 29 29 30 30 30 29 29 30
12 9 11 10 7 7 7 11 10 5 5 5 6 4 3 4 3 2 1 4 4 8 11 14 15 16 18 19 20 22 24 26 26 27 28 29 29 29 29 29 29 29 30
12 10 10 8 6 6 9 7 7 9 9 7 6 5 7 6 3 1 2 4 5 7 9 12 14 16 18 19 21 22 24 26 27 28 28 28 29 29 29 29 29 29 29
11 11 11 9 9 6 6 7 8 10 9 7 7 7 6 5 3 2 2 3 6 7 8 11 13 16 18 19 20 22 24 26 26 27 28 28 27 27 28 28 28 29 30
13 13 11 11 8 7 7 6 5 7 8 8 8 8 7 6 4 3 2 3 5 7 10 12 13 15 17 19 21 22 24 25 25 26 27 27 26 27 28 28 29 31 32
14 12 12 13 10 8 7 7 7 7 8 9 8 9 9 6 4 3 2 2 3 5 8 11 14 16 18 20 21 22 23 24 25 25 26 26 26 26 27 28 29 30 31
14 13 13 14 11 9 8 8 8 8 8 8 9 9 7 7 7 5 4 4 5 7 10 13 13 15 17 19 21 22 23 23 23 25 25 25 25 26 27 28 28 29 30
13 15 16 15 11 10 9 8 8 8 9 8 10 7 8 8 7 7 4 5 6 8 9 11 14 15 17 17 20 21 22 22 23 23 23 23 24 26 27 27 28 29 30
15 18 17 15 12 10 9 8 8 8 9 9 10 7 10 9 8 9 7 7 8 9 11 13 15 16 17 17 18 19 20 21 21 22 22 23 24 26 26 26 27 28 29
17 17 15 14 11 9 8 8 8 8 9 9 10 8 10 10 10 9 8 9 9 10 12 14 16 17 17 16 17 18 19 19 20 21 21 23 24 24 25 26 26 27 28
17 16 15 13 11 10 8 9 9 8 9 10 10 10 11 11 10 10 9 10 9 10 11 14 16 17 16 17 16 16 18 19 19 20 21 22 23 24 25 25 25 26 27
19 16 15 13 12 10 10 10 10 9 9 10 11 12 11 12 11 11 12 11 9 10 11 13 15 17 17 16 15 15 16 17 18 19 19 21 22 23 24 24 25 25 26
20 18 16 14 12 11 12 12 11 10 10 11 12 12 12 13 12 13 13 11 10 11 11 13 14 15 16 16 16 15 12 14 16 17 19 20 21 23 23 24 24 24 25
21 19 17 15 13 12 14 13 12 11 11 12 13 13 13 13 14 14 14 13 13 12 12 12 14 15 16 15 14 14 15 15 15 16 18 18 19 20 22 23 23 22 23
23 21 19 16 13 12 13 13 13 13 13 13 13 13 13 14 16 15 15 14 14 14 13 13 15 15 15 15 15 14 14 15 16 15 15 16 17 18 19 20 20 21 22
25 23 21 18 15 13 13 14 14 15 14 14 13 14 15 16 16 16 16 15 14 15 15 14 15 14 14 14 14 14 14 15 16 17 17 17 16 17 18 19 20 21 22
26 24 22 19 17 16 15 14 15 16 14 14 14 15 16 16 17 17 18 15 15 16 15 15 15 15 14 14 14 13 13 13 14 15 17 18 18 18 18 20 21 21 21
27 26 23 20 20 19 17 16 17 16 15 15 15 16 16 17 18 19 19 17 16 16 16 16 16 16 15 14 14 14 14 14 14 14 15 15 17 18 20 20 21 21 19
30 28 25 23 22 20 19 19 19 17 16 16 17 17 17 18 19 20 19 18 17 17 16 17 17 17 16 15 14 14 14 14 14 14 15 15 14 15 16 17 17 18 19
30 31 28 24 22 21 22 22 21 18 17 17 17 16 17 19 20 20 20 19 17 18 18 17 17 17 17 16 15 15 15 15 15 14 15 14 15 15 15 16 16 16 18
Wind_Direction
154 143 141 149 106 59 2 358 342 339 346 10 65 107 99 50 15 25 35 49 48 42 33 30 26 19 18 16 12 10 8 6 4 1 358 357 354 351 349 348 344 342 339
175 179 172 183 193 270 306 335 328 326 331 20 107 114 56 21 16 48 55 47 38 28 29 28 23 17 16 13 10 8 7 5 2 360 358 357 354 353 351 350 346 347 344
185 189 190 209 238 276 303 313 312 299 299 123 122 60 10 2 31 49 49 38 29 26 25 26 19 14 11 10 7 7 5 5 2 358 357 356 355 355 352 352 350 352 348
192 206 216 229 249 270 278 304 282 268 182 130 97 27 26 33 9 37 46 28 27 24 25 20 14 11 9 5 3 4 4 4 360 358 357 358 355 355 355 354 354 354 351
204 215 224 231 242 259 273 264 249 192 149 135 349 351 351 15 133 125 93 62 34 26 22 15 7 10 5 1 2 3 2 2 359 358 358 358 359 357 358 356 357 356 353
215 216 221 230 242 255 256 232 189 166 158 209 293 337 357 13 71 52 40 33 27 21 18 18 13 1 2 1 2 1 360 0 360 359 359 360 358 359 360 359 359 356 354
221 220 230 236 246 252 245 208 163 166 187 265 263 278 312 152 154 111 61 26 15 10 6 7 18 0 0 0 0 359 0 0 360 0 1 360 1 1 1 360 358 356 356
222 219 233 247 241 226 203 173 169 203 243 243 265 270 265 226 191 140 41 50 27 12 4 360 3 359 0 359 358 359 360 360 1 3 2 1 1 3 2 360 359 358 357
221 222 224 222 200 174 165 184 223 241 246 253 252 251 277 243 208 155 338 2 3 17 5 358 360 358 357 357 358 358 -0 0 2 2 3 3 3 2 2 0 360 0 357
211 207 211 186 176 184 233 244 247 244 239 234 238 253 240 216 201 289 294 338 343 358 359 359 3 356 355 356 356 358 0 1 2 1 4 2 2 4 2 1 2 360 360
204 207 211 185 195 238 245 216 225 222 225 232 247 259 254 233 207 223 262 332 337 339 347 350 359 356 354 354 356 358 0 1 1 2 4 3 3 4 2 2 4 3 2
209 209 206 199 217 244 211 223 230 234 238 243 250 254 260 264 274 275 281 299 308 329 336 344 355 352 355 354 355 357 359 1 -0 2 4 2 4 4 3 5 5 4 2
215 211 212 218 223 225 227 232 233 241 248 244 250 262 254 233 247 270 295 307 312 331 341 342 351 350 354 353 353 356 358 359 359 3 3 2 4 6 5 7 6 5 5
218 215 216 226 220 216 232 232 241 243 255 250 255 251 231 243 254 270 281 295 312 333 344 337 341 352 353 355 350 354 355 356 359 1 2 3 6 8 7 8 7 7 7
215 214 215 218 213 216 233 237 242 247 253 251 261 232 232 235 247 266 281 294 313 332 330 339 343 348 351 354 348 352 353 354 356 359 1 3 8 8 7 9 7 8 9
205 204 203 203 213 224 235 239 243 246 256 253 260 240 234 233 244 253 270 282 303 320 330 335 339 343 343 346 350 350 349 352 355 358 0 4 8 8 8 9 8 9 11
197 192 194 200 216 231 240 246 249 250 254 255 256 242 237 237 243 249 261 275 300 314 325 330 332 335 339 341 347 352 347 349 352 356 0 3 7 7 8 9 9 9 11
198 196 201 209 220 231 242 248 249 254 256 256 253 246 241 241 243 247 253 271 293 305 319 324 329 331 333 335 343 352 348 344 348 354 359 3 5 6 8 8 10 9 11
202 205 210 218 226 232 240 245 247 252 257 259 255 252 243 245 246 250 258 271 282 293 307 315 323 324 326 332 338 343 348 345 349 352 359 2 3 4 5 7 9 8 10
209 213 216 221 228 235 241 244 247 253 259 260 258 255 251 247 248 252 258 268 279 288 299 309 314 319 324 328 334 339 343 345 349 354 357 359 1 1 3 5 7 6 9
216 218 221 223 228 239 245 246 247 252 257 260 260 259 255 248 249 252 258 265 278 289 297 306 312 318 320 325 333 336 340 343 342 350 355 357 358 2 4 3 4 5 9
222 224 226 227 232 242 249 249 248 252 257 259 261 260 255 253 253 254 258 263 273 284 292 301 306 312 316 321 327 331 335 338 342 342 347 351 354 1 2 3 2 6 8
226 229 230 230 234 243 251 252 250 253 256 258 258 258 259 257 256 256 260 264 272 280 288 296 299 306 312 319 324 326 328 331 335 334 339 343 348 354 359 1 1 2 2
231 233 235 234 237 243 248 251 252 253 255 258 259 261 263 260 258 258 260 264 271 278 284 291 296 302 308 314 319 322 324 325 327 329 333 338 341 347 352 355 359 356 353
232 234 236 236 240 245 248 250 253 254 254 256 257 263 266 265 261 260 262 265 269 275 281 286 291 297 303 309 315 319 319 319 320 323 329 333 334 337 345 348 350 352 348
240 233 235 237 239 244 246 250 252 253 252 254 256 265 273 269 264 263 263 265 269 272 276 281 286 291 297 302 307 312 314 313 315 316 320 325 328 330 334 338 341 345 347
Height
3192 3193 3194 3195 3195 3196 3196 3197 3195 3193 3194 3195 3195 3194 3194 3194 3194 3193 3191 3190 3189 3188 3187 3186 3185 3184 3182 3179 3177 3175 3172 3169 3166 3162 3158 3155 3150 3146 3142 3139 3134 3131 3126
3191 3193 3194 3194 3195 3195 3195 3197 3195 3193 3194 3195 3195 3195 3195 3195 3194 3193 3192 3191 3191 3190 3188 3187 3186 3184 3182 3180 3178 3175 3172 3169 3165 3161 3158 3154 3149 3145 3140 3136 3131 3127 3122
3191 3192 3193 3194 3195 3194 3195 3196 3196 3194 3194 3196 3197 3196 3195 3195 3194 3193 3193 3192 3191 3190 3189 3188 3187 3185 3183 3181 3177 3175 3172 3168 3164 3160 3156 3152 3146 3142 3138 3134 3128 3124 3119
3190 3191 3192 3193 3194 3193 3194 3196 3196 3195 3196 3196 3197 3197 3196 3195 3194 3194 3193 3193 3192 3191 3190 3188 3187 3185 3183 3180 3177 3174 3170 3167 3163 3158 3154 3150 3145 3141 3136 3131 3127 3122 3117
3188 3190 3191 3192 3193 3193 3194 3194 3195 3195 3196 3197 3197 3195 3195 3195 3195 3194 3194 3194 3193 3192 3190 3189 3186 3185 3182 3180 3176 3173 3170 3166 3162 3158 3153 3148 3144 3138 3134 3129 3124 3120 3115
3185 3188 3190 3191 3192 3192 3193 3193 3194 3195 3196 3197 3196 3195 3194 3193 3193 3192 3192 3192 3192 3191 3191 3190 3188 3184 3183 3180 3176 3173 3169 3165 3161 3156 3151 3147 3140 3137 3132 3127 3122 3118 3113
3183 3186 3188 3189 3190 3190 3191 3192 3193 3195 3195 3195 3195 3194 3193 3193 3193 3194 3193 3192 3191 3191 3190 3189 3188 3185 3182 3179 3176 3173 3169 3164 3160 3155 3150 3145 3140 3135 3130 3126 3121 3116 3111
3180 3184 3185 3186 3188 3189 3189 3190 3192 3193 3194 3193 3193 3193 3193 3194 3193 3193 3192 3192 3192 3191 3189 3188 3186 3184 3181 3178 3175 3172 3168 3163 3159 3154 3149 3144 3138 3134 3129 3125 3120 3115 3110
3178 3182 3184 3185 3186 3188 3189 3190 3192 3192 3192 3192 3191 3192 3191 3191 3191 3192 3191 3191 3190 3190 3190 3188 3187 3184 3181 3178 3175 3171 3167 3162 3157 3153 3148 3143 3138 3133 3129 3124 3118 3114 3109
3176 3179 3181 3184 3186 3187 3188 3188 3189 3189 3190 3190 3191 3191 3191 3191 3190 3191 3191 3190 3189 3189 3189 3188 3186 3183 3180 3177 3174 3170 3166 3161 3156 3152 3147 3142 3137 3133 3128 3124 3119 3113 3107
3174 3176 3179 3182 3184 3185 3186 3187 3187 3187 3188 3188 3188 3188 3189 3190 3190 3190 3189 3190 3189 3189 3188 3186 3186 3183 3180 3176 3173 3169 3165 3160 3156 3151 3146 3142 3137 3132 3127 3122 3116 3111 3106
3172 3174 3177 3181 3183 3183 3184 3184 3185 3185 3186 3185 3186 3186 3187 3188 3188 3189 3189 3189 3189 3188 3187 3186 3183 3181 3178 3174 3171 3168 3164 3159 3155 3150 3146 3142 3137 3132 3127 3121 3116 3111 3106
3169 3171 3175 3178 3181 3181 3182 3182 3182 3184 3184 3184 3184 3185 3186 3186 3187 3188 3188 3188 3188 3187 3186 3184 3183 3180 3176 3173 3170 3167 3163 3159 3155 3150 3145 3141 3136 3131 3127 3121 3116 3111 3106
3166 3169 3172 3175 3178 3179 3180 3180 3180 3181 3182 3182 3183 3183 3184 3185 3184 3185 3186 3187 3187 3186 3185 3184 3181 3179 3176 3172 3169 3166 3162 3158 3154 3149 3145 3140 3136 3131 3126 3121 3116 3111 3106
3163 3166 3170 3172 3174 3176 3178 3178 3178 3178 3179 3180 3180 3182 3182 3183 3183 3182 3183 3184 3185 3185 3184 3182 3179 3176 3174 3172 3168 3165 3161 3158 3153 3149 3145 3140 3135 3130 3125 3121 3116 3111 3105
3160 3164 3167 3169 3171 3174 3174 3175 3175 3176 3177 3178 3178 3180 3180 3181 3181 3181 3182 3182 3182 3182 3181 3179 3177 3175 3172 3170 3167 3163 3160 3156 3152 3148 3144 3139 3134 3130 3125 3120 3116 3111 3105
3159 3161 3165 3166 3169 3171 3171 3173 3173 3174 3175 3175 3176 3177 3177 3178 3179 3180 3180 3179 3180 3180 3178 3176 3174 3173 3171 3168 3165 3162 3158 3155 3151 3147 3143 3139 3134 3129 3125 3120 3116 3111 3105
3156 3159 3162 3164 3167 3168 3169 3170 3171 3171 3172 3173 3174 3174 3175 3176 3177 3178 3177 3178 3178 3177 3176 3174 3173 3169 3167 3165 3163 3161 3157 3154 3150 3147 3143 3138 3133 3129 3124 3120 3115 3111 3106
3152 3156 3159 3162 3163 3164 3166 3168 3168 3169 3170 3170 3171 3171 3172 3173 3174 3175 3175 3175 3176 3175 3174 3173 3171 3169 3166 3163 3160 3158 3158 3154 3149 3145 3141 3136 3132 3128 3124 3120 3115 3111 3106
3148 3153 3156 3158 3159 3161 3163 3164 3164 3166 3166 3167 3167 3168 3168 3170 3171 3172 3172 3171 3171 3172 3171 3170 3169 3166 3164 3161 3159 3156 3152 3150 3148 3144 3139 3136 3132 3128 3124 3120 3115 3111 3106
3145 3149 3151 3154 3156 3157 3159 3160 3160 3162 3163 3163 3164 3165 3165 3166 3167 3168 3168 3168 3167 3167 3167 3166 3165 3163 3161 3158 3155 3153 3150 3147 3144 3142 3140 3136 3133 3129 3124 3120 3116 3111 3105
3140 3144 3147 3150 3152 3154 3155 3156 3156 3158 3158 3159 3160 3161 3161 3162 3163 3164 3164 3164 3164 3164 3163 3163 3162 3161 3158 3156 3153 3150 3147 3145 3142 3139 3136 3134 3131 3128 3123 3119 3115 3110 3104
3135 3139 3142 3145 3147 3150 3150 3152 3152 3154 3154 3155 3156 3156 3158 3158 3158 3159 3160 3160 3160 3160 3160 3159 3158 3157 3155 3153 3150 3147 3145 3143 3140 3137 3133 3130 3127 3124 3121 3116 3112 3108 3104
3130 3133 3137 3140 3142 3144 3145 3147 3148 3149 3150 3151 3152 3152 3153 3153 3154 3154 3155 3155 3156 3156 3155 3155 3154 3153 3151 3149 3147 3144 3142 3140 3138 3135 3132 3129 3125 3122 3118 3114 3111 3108 3104
3124 3128 3131 3134 3137 3139 3140 3141 3142 3144 3145 3146 3147 3148 3149 3149 3149 3149 3151 3150 3151 3151 3151 3150 3149 3148 3147 3145 3143 3141 3138 3136 3134 3132 3129 3126 3124 3121 3118 3114 3110 3106 3103
3117 3121 3125 3129 3131 3132 3134 3135 3137 3138 3139 3141 3143 3143 3144 3143 3143 3144 3145 3146 3146 3146 3146 3146 3145 3144 3143 3141 3139 3137 3135 3132 3130 3128 3126 3124 3121 3118 3116 3112 3109 3104 3101